Chubbuck, ID

3:40 PM MDT on September 24, 2016 (GMT -0600)
Pocatello Regional

Weather History for KPIH - December, 2011

Change the Weather History Date:

Wednesday, December 14, 2011

  Actual Average Record
Temperature  
Mean Temperature 26 °F 24 °F  
Max Temperature 36 °F 32 °F 54 °F (2002)
Min Temperature 15 °F 16 °F -15 °F (1972)
Degree Days  
Heating Degree Days 39 41  
Month to date heating degree days 637 553  
Since 1 July heating degree days 2211 2281  
Cooling Degree Days 0 0  
Month to date cooling degree days 0 0  
Year to date cooling degree days 372 392  
Moisture  
Dew Point 19 °F    
Average Humidity 72    
Maximum Humidity 92    
Minimum Humidity 52    
Precipitation  
Precipitation 0.00 in 0.04 in 0.32 in (1983)
Month to date precipitation 0.01 0.58  
Year to date precipitation 12.17 11.47  
Snow  
Snow 0.00 in - - ()
Month to date snowfall 0.1  
Since 1 July snowfall 3.2  
Snow Depth T in    
Sea Level Pressure  
Sea Level Pressure 30.23 in    
Wind  
Wind Speed 8 mph (SW)    
Max Wind Speed 16 mph    
Max Gust Speed 22 mph    
Visibility 10 miles    
Events      
T = Trace of Precipitation, MM = Missing Value Source: NWS Daily Summary

Daily Weather History Graph

Daily Weather History Graph

Search for Another Location

Airport or City:

Trip Planner

Search our weather history database for the weather conditions in past years. The results will help you decide how hot, cold, wet, or windy it might be!

Date:

Astronomy

Dec. 14, 2011 Rise Set
Actual Time 7:53 AM MST 4:56 PM MST
Civil Twilight 7:21 AM MST 5:28 PM MST
Nautical Twilight 6:45 AM MST 6:04 PM MST
Astronomical Twilight 6:10 AM MST 6:38 PM MST
Moon 9:25 PM MST (12/14) 10:36 AM MST (12/14)
Length of Visible Light 10h 07m
Length of Day
9h 02m
Waning Gibbous, 83% of the Moon is Illuminated
Dec 14
Waning Gibbous
Dec 17
Last Quarter
Dec 24
New
Dec 31
First Quarter
Jan 9
Full

Hourly Weather History & Observations

Time (MST) Temp. Windchill Dew Point Humidity Pressure Visibility Wind Dir Wind Speed Gust Speed Precip Events Conditions
12:53 AM 19.0 °F 9.0 °F 16.0 °F 88% 30.12 in 8.0 mi South 8.1 mph - N/A   Clear
1:53 AM 21.0 °F 14.6 °F 18.0 °F 88% 30.13 in 10.0 mi SW 4.6 mph - N/A   Clear
2:53 AM 21.0 °F 12.4 °F 18.0 °F 88% 30.13 in 9.0 mi South 6.9 mph - N/A   Clear
3:53 AM 19.9 °F 13.4 °F 17.1 °F 89% 30.14 in 8.0 mi SW 4.6 mph - N/A   Clear
4:53 AM 21.9 °F 12.5 °F 19.9 °F 92% 30.15 in 8.0 mi SW 8.1 mph - N/A   Mostly Cloudy
5:53 AM 21.0 °F 12.4 °F 19.0 °F 92% 30.18 in 7.0 mi West 6.9 mph - N/A   Clear
6:53 AM 18.0 °F 11.1 °F 16.0 °F 92% 30.21 in 7.0 mi West 4.6 mph - N/A   Clear
7:53 AM 21.9 °F 13.4 °F 17.1 °F 82% 30.22 in 10.0 mi SSW 6.9 mph - N/A   Partly Cloudy
8:53 AM 26.1 °F 18.4 °F 19.9 °F 78% 30.23 in 10.0 mi SW 6.9 mph - N/A   Mostly Cloudy
9:53 AM 27.0 °F 20.5 °F 21.0 °F 78% 30.27 in 10.0 mi SSW 5.8 mph - N/A   Mostly Cloudy
10:53 AM 30.9 °F 21.7 °F 21.9 °F 69% 30.26 in 10.0 mi SSW 11.5 mph - N/A   Mostly Cloudy
11:53 AM 33.1 °F 23.9 °F 21.9 °F 64% 30.23 in 10.0 mi SSW 12.7 mph 21.9 mph N/A   Mostly Cloudy
12:53 PM 35.1 °F 25.9 °F 19.9 °F 54% 30.23 in 10.0 mi SW 13.8 mph - N/A   Mostly Cloudy
1:53 PM 35.1 °F 25.5 °F 19.9 °F 54% 30.24 in 10.0 mi WSW 15.0 mph - N/A   Mostly Cloudy
2:53 PM 35.1 °F 26.9 °F 19.9 °F 54% 30.23 in 10.0 mi SW 11.5 mph - N/A   Mostly Cloudy
3:53 PM 35.1 °F 28.6 °F 21.9 °F 59% 30.24 in 10.0 mi South 8.1 mph - N/A   Mostly Cloudy
4:53 PM 30.0 °F 22.4 °F 21.0 °F 69% 30.27 in 10.0 mi South 8.1 mph - N/A   Mostly Cloudy
5:53 PM 26.1 °F 17.6 °F 19.9 °F 78% 30.30 in 10.0 mi South 8.1 mph - N/A   Mostly Cloudy
6:53 PM 24.1 °F 18.2 °F 19.0 °F 81% 30.31 in 10.0 mi South 4.6 mph - N/A   Clear
7:53 PM 24.1 °F 15.2 °F 19.0 °F 81% 30.30 in 10.0 mi South 8.1 mph - N/A   Clear
8:53 PM 21.9 °F 13.4 °F 18.0 °F 85% 30.29 in 10.0 mi South 6.9 mph - N/A   Clear
9:53 PM 21.9 °F 17.2 °F 18.0 °F 85% 30.28 in 10.0 mi SW 3.5 mph - N/A   Clear
10:53 PM 19.0 °F - 15.1 °F 85% 30.28 in 10.0 mi Calm Calm - N/A   Clear
11:53 PM 18.0 °F 6.9 °F 15.1 °F 88% 30.28 in 10.0 mi North 9.2 mph - N/A   Clear